EDDNEDQM

Guest
Details From EDDN - Nurnberg
To EDQM - Hof Plauen
Flight Number -
Tags decoded
Created
Modified
Stats Distance 64 nm / 118 km
Max Altitude 0 ft / 0 m
Waypoints 6
Social Downloads 1
Likes 0
Share VATSIM

Download

Looking for another format? Having issues loading an existing format? Contact us
Advertisement - Login to hide

Notes

Requested: EDDN RTB DN103 AGIKO ERETO KULOK EDQM Unmatched points: AGIKO

Route

EDDN RTB DN103 ERETO KULOK EDQM

ID Type Via Altitude Latitude Longitude Leg Dist Tot Dist Heading (true) Name
O EDDN APT - 0 ft / 0 m 49.49874˚ 11.07758˚ - 0 nm - Nurnberg
RTB NDB - 0 ft / 0 m 49.48269˚ 11.25286˚ 6 nm 6 nm 98° / 98° ROTHENBACH NDB
DN103 FIX - 0 ft / 0 m 49.51547˚ 11.34641˚ 4 nm 11 nm 62° / 62° -
ERETO FIX - 0 ft / 0 m 49.93111˚ 11.40833˚ 25 nm 36 nm 5° / 6° -
KULOK FIX - 0 ft / 0 m 50.07278˚ 11.63056˚ 12 nm 48 nm 45° / 45° -
O EDQM APT - 0 ft / 0 m 50.28864˚ 11.85406˚ 15 nm 63 nm 33° / 34° Hof Plauen

Altitude Profile

Advertisement - Login to hide

EDDN

Details ICAO EDDN (NUE)
Name Nurnberg
Region Germany - Civil
Timezone Europe/Berlin (UTC+1.0)
Stats Elevation 1,045 ft / 319 m (AMSL)
Location 49.498744° 11.077580°
Runways 1
Magnetic Variation 3.020° E

METAR

EDDN 181020Z 14006KT 110V170 CAVOK 02/M02 Q1022 R28/CLRD// NOSIG

Decode

TAF

TAF EDDN 180500Z 1806/1906 21005KT 9999 SCT014 BKN040 BECMG 1807/1809 15006KT PROB30 TEMPO 1809/1812 4500 -SN BKN012 BECMG 1902/1904 BKN014

Decode

Departure Runways

ID Width Length Bearing (true) Bearing (mag) Surface Threshold Offset Overrun Length
10 148 ft / 45 m 8,819 ft / 2,688 m 98.60° 95.58° Asphalt 0 ft / 0 m 0 ft / 0 m
28 148 ft / 45 m 8,819 ft / 2,688 m 278.63° 275.61° Asphalt 0 ft / 0 m 0 ft / 0 m

EDQM

Details ICAO EDQM (HOQ)
Name Hof Plauen
Region Germany - Civil
Timezone Europe/Berlin (UTC+1.0)
Stats Elevation 1,960 ft / 597 m (AMSL)
Location 50.288643° 11.854065°
Runways 1
Magnetic Variation 3.248° E

METAR

EDQM 181020Z 15004KT 9999 FEW009 SCT014 OVC023 M01/M03 Q1021

Decode

TAF

Not found

Destination Runways

ID Width Length Bearing (true) Bearing (mag) Surface Threshold Offset Overrun Length
09 98 ft / 30 m 4,842 ft / 1,476 m 86.76° 83.51° Asphalt 788 ft / 240 m 0 ft / 0 m
27 98 ft / 30 m 4,842 ft / 1,476 m 266.78° 263.53° Asphalt 197 ft / 60 m 0 ft / 0 m

Approach Navaids

Runway Type Ident Frequency Range Bearing (true) Bearing (mag) Slope Elevation
09 Localiser IHOE 110.70 MHz 18 nm / 33 km 86.79° 83.54° - 1,897 ft / 578 m (AMSL)
09 DME IHOE 110.70 MHz 18 nm / 33 km - - - 1,946 ft / 593 m (AMSL)
27 Localiser IHOW 110.70 MHz 18 nm / 33 km 266.77° 263.52° - 1,958 ft / 597 m (AMSL)
27 Glidescope IHOW 110.70 MHz 10 nm / 19 km 266.77° 263.52° 3.50° 1,897 ft / 578 m (AMSL)

Popular Alternatives